Location: Hawks Ness
(60.2333°N, 1.1667°W)
Time: 04:20:27
(UTC+00:00)

Cosmos 2219 Rocket - Pass Details

Date: 22 October 2019
Orbit: 828 x 846 km, 71.0° (Epoch: 16 November)

Event Time Altitude Azimuth Distance (km) Brightness Sun altitude
Exits shadow 04:03:21 43° 212° (SSW) 1,161 2.5 -22.5°
Maximum altitude 04:05:18 85° 128° (SE) 842 2.1 -22.2°
Drops below altitude 10° 04:10:57 10° 41° (NE) 2,453 5.4 -21.6°
Sets 04:13:24 0° 41° (NE) 3,392 6.3 -21.3°
